Tracking 31027 objects as of 19-Jul-2025
HD Live streaming from Space Station
objects crossing your sky now

CHUANG XIN 16A (CX-16A)

Track CHUANG XIN 16A (CX-16A) now!
10-day predictions


NORAD ID: 53586
Int'l Code: 2022-102A
Perigee: 557.6 km
Apogee: 564.7 km
Inclination: 29.0 °
Period: 95.7 minutes
Semi major axis: 6932 km
RCS: Unknown
Launch date: August 23, 2022
Source: People's Republic of China (PRC)
Launch site: Xichang Space Center, China (XSC)
Your satellite tracking list
ATLAS 2A CENTAUR R/B
Track 1 satellite(s)




NASA's NSSDC Master Catalog

Two Line Element Set (TLE):
1 53586U 22102A   25199.84641273  .00001767  00000-0  11336-3 0  9993
2 53586  28.9965 345.0388 0005082  93.4139 266.7041 15.04179367159265
Source of the keplerian elements: AFSPC